GW0890 Weather Reports


time (UTC)temp
F
wind
direction
speed
knots
gust
knots
rain 1hr
in
rain 24hr
in
rain mn
in
humidity
%
barometer
mb
20260508230048 70 40 5.2 8.7 0.00 0.00 0.00 37 1009.7
20260508224551 70 23 5.2 13.0 0.00 0.00 0.00 37 1009.9
20260508223049 70 56 6.1 13.0 0.00 0.00 0.00 36 1010.0
20260508221543 71 61 5.2 9.6 0.00 0.00 0.00 38 1009.8
20260508220040 71 337 6.1 9.6 0.00 0.00 0.00 35 1009.8
20260508214556 71 64 5.2 9.6 0.00 0.00 0.00 37 1009.9
20260508213037 71 16 6.1 18.2 0.00 0.00 0.00 37 1009.9
20260508211536 70 318 5.2 12.2 0.00 0.00 0.00 37 1010.0
20260508210037 71 16 6.1 16.5 0.00 0.00 0.00 37 1010.1
20260508204537 70 82 4.3 11.3 0.00 0.00 0.00 36 1010.2
20260508203031 71 61 7.0 12.2 0.00 0.00 0.00 36 1010.4
20260508201531 71 26 3.5 13.0 0.00 0.00 0.00 40 1010.4
20260508200027 71 300 6.1 13.0 0.00 0.00 0.00 37 1010.6
20260508194525 71 33 7.0 12.2 0.00 0.00 0.00 38 1011.0
20260508193021 71 329 4.3 10.4 0.00 0.00 0.00 38 1011.2
20260508191619 70 342 7.8 16.5 0.00 0.00 0.00 38 1011.5
20260508190036 70 350 4.3 11.3 0.00 0.00 0.00 40 1011.9
20260508184527 71 9 7.0 11.3 0.00 0.00 0.00 39 1012.4
20260508183055 69 346 6.1 13.9 0.00 0.00 0.00 39 1012.5
20260508181540 69 83 5.2 13.9 0.00 0.00 0.00 38 1012.8
20260508180047 69 117 5.2 12.2 0.00 0.00 0.00 40 1012.9
20260508174542 69 32 4.3 7.8 0.00 0.00 0.00 41 1013.1
20260508173032 69 116 7.0 12.2 0.00 0.00 0.00 38 1013.3
20260508171529 68 76 5.2 9.6 0.00 0.00 0.00 41 1013.5
20260508170107 68 306 4.3 13.9 0.00 0.00 0.00 42 1013.8
20260508164559 68 355 6.1 12.2 0.00 0.00 0.00 42 1014.1
20260508163052 67 39 5.2 9.6 0.00 0.00 0.00 42 1014.3
20260508161549 66 76 2.6 9.6 0.00 0.00 0.00 47 1014.8
20260508160046 65 11 6.1 12.2 0.00 0.00 0.00 44 1015.0
20260508154544 64 63 3.5 12.2 0.00 0.00 0.00 46 1015.1
20260508153026 64 51 5.2 9.6 0.00 0.00 0.00 46 1015.1
20260508151511 63 317 5.2 7.8 0.00 0.00 0.00 49 1015.0
20260508150055 61 61 6.1 9.6 0.00 0.00 0.00 53 1015.2
20260508144554 60 98 5.2 7.8 0.00 0.00 0.00 53 1015.2
20260508143057 59 38 6.1 10.4 0.00 0.00 0.00 55 1015.3
20260508141600 57 24 2.6 9.6 0.00 0.00 0.00 58 1015.2
20260508140045 56 58 3.5 6.1 0.00 0.00 0.00 63 1015.3
20260508134542 54 51 2.6 6.1 0.00 0.00 0.00 67 1015.4
20260508133037 52 328 0.9 3.5 0.00 0.00 0.00 72 1015.6
20260508131533 50 310 0.0 4.3 0.00 0.00 0.00 76 1015.6
20260508130039 49 292 0.9 4.3 0.00 0.00 0.00 85 1015.7
20260508124536 44 169 0.0 0.0 0.00 0.00 0.00 95 1015.9
20260508123028 42 168 0.0 0.0 0.00 0.00 0.00 96 1015.7
20260508121626 40 167 0.0 0.0 0.00 0.00 0.00 96 1015.7
20260508120029 38 167 0.0 0.0 0.00 0.00 0.00 96 1015.6
20260508114530 37 167 0.0 0.0 0.00 0.00 0.00 96 1015.6
20260508113028 36 167 0.0 0.0 0.00 0.00 0.00 95 1015.6
20260508111526 35 166 0.0 0.0 0.00 0.00 0.00 95 1015.5
20260508110023 34 166 0.0 0.0 0.00 0.00 0.00 95 1015.3
20260508104524 34 166 0.0 0.0 0.00 0.00 0.00 95 1015.2
20260508103025 34 166 0.0 0.0 0.00 0.00 0.00 95 1015.1
20260508101520 34 165 0.0 0.0 0.00 0.00 0.00 95 1014.9
20260508100117 34 165 0.0 0.0 0.00 0.00 0.00 95 1014.7
20260508094546 34 165 0.0 0.0 0.00 0.00 0.00 95 1014.7
20260508093045 35 165 0.0 0.0 0.00 0.00 0.00 94 1014.7
20260508091543 35 165 0.0 0.0 0.00 0.00 0.00 94 1014.7
20260508090040 35 165 0.0 0.0 0.00 0.00 0.00 94 1014.6
20260508084641 35 165 0.0 0.0 0.00 0.00 0.00 94 1014.6
20260508083042 35 165 0.0 0.0 0.00 0.00 0.00 94 1014.5
20260508081510 36 164 0.0 0.0 0.00 0.00 0.00 94 1014.6
20260508080005 36 164 0.0 0.0 0.00 0.00 0.00 94 1014.4
20260508074502 36 164 0.0 0.0 0.00 0.00 0.00 94 1014.5
20260508073004 36 164 0.0 0.0 0.00 0.00 0.00 94 1014.3
20260508071604 37 164 0.0 0.0 0.00 0.00 0.00 93 1014.3
20260508070059 37 164 0.0 0.0 0.00 0.00 0.00 93 1014.3
20260508064555 37 163 0.0 3.5 0.00 0.00 0.00 93 1014.4
20260508063103 37 162 0.0 0.0 0.00 0.00 0.00 92 1014.5
20260508061551 38 162 0.0 1.7 0.00 0.00 0.00 92 1014.5
20260508060050 38 162 0.0 0.0 0.00 0.00 0.00 92 1014.6
20260508054520 38 162 0.0 1.7 0.00 0.00 0.00 92 1014.4
20260508053016 39 160 0.0 1.7 0.00 0.00 0.00 91 1014.4
20260508051513 39 159 0.0 0.0 0.00 0.00 0.00 91 1014.4
20260508050010 39 159 0.9 2.6 0.00 0.00 0.00 90 1014.4
20260508044508 40 159 0.0 0.0 0.00 0.00 0.00 90 1014.5
20260508043006 40 159 0.0 0.0 0.00 0.00 0.00 89 1014.5
20260508041602 41 158 0.0 0.0 0.00 0.00 0.00 88 1014.4
20260508040059 41 158 0.0 0.0 0.00 0.00 0.00 87 1014.4
20260508034611 42 158 0.0 0.0 0.00 0.00 0.00 87 1014.3
20260508033054 43 157 0.0 0.0 0.00 0.00 0.00 84 1014.4
20260508031550 43 157 0.0 1.7 0.00 0.00 0.00 84 1014.4
20260508030047 44 157 0.0 3.5 0.00 0.00 0.00 83 1014.3
20260508024544 45 157 0.0 3.5 0.00 0.00 0.00 79 1014.2
20260508023039 46 155 0.0 0.0 0.00 0.00 0.00 76 1014.0
20260508021505 48 155 0.0 0.0 0.00 0.00 0.00 74 1013.8
20260508020004 49 155 0.0 1.7 0.00 0.00 0.00 71 1013.7
20260508014533 50 155 0.9 1.7 0.00 0.00 0.00 69 1013.3
20260508013039 51 155 0.0 1.7 0.00 0.00 0.00 65 1013.2
20260508011502 53 155 0.0 0.0 0.00 0.00 0.00 61 1012.9
20260508010002 56 155 0.0 1.7 0.00 0.00 0.00 53 1012.6
20260508004600 57 155 0.0 2.6 0.00 0.00 0.00 48 1012.7
20260508003059 58 156 1.7 4.3 0.00 0.00 0.00 46 1012.5
20260508001621 60 157 0.0 1.7 0.00 0.00 0.00 44 1012.3
20260508000100 61 144 0.0 5.2 0.00 0.00 0.00 39 1012.0
20260507234556 63 182 0.9 4.3 0.00 0.00 0.00 36 1011.8
20260507233056 63 146 0.9 6.1 0.00 0.00 0.00 36 1011.6
20260507231556 63 155 2.6 7.8 0.00 0.00 0.00 35 1011.5